• en Suisse
  • Liste des pays
  • À 7 jours
  • Température de l'eau
  • Carte satellitaire
  • Carte météo
  • Widgets météo
  • user-avatar
    Se connecter

    Météo par heure à Vennesla

    Ce jour, 17 Novembre, Vendredi

    Heure Température Précipitation Vent Pression Humidité
    00:00 0°C° 0 mm 8 m/s 736 mmHg 76%
    01:00 -1°C° 0 mm 7 m/s 736 mmHg 80%
    02:00 0°C° 0 mm 7 m/s 736 mmHg 79%
    03:00 0°C° 0 mm 7 m/s 737 mmHg 79%
    04:00 0°C° 0 mm 8 m/s 737 mmHg 79%
    05:00 0°C° 0 mm 8 m/s 737 mmHg 79%
    06:00 0°C° 0 mm 8 m/s 737 mmHg 80%
    07:00 0°C° 0 mm 8 m/s 737 mmHg 82%
    08:00 +1°C° 0,1 mm 8 m/s 737 mmHg 81%
    09:00 +1°C° 0,1 mm 9 m/s 737 mmHg 80%
    10:00 +2°C° 0,1 mm 10 m/s 737 mmHg 79%
    11:00 +2°C° 0,2 mm 10 m/s 737 mmHg 79%
    12:00 +3°C° 0,2 mm 10 m/s 736 mmHg 79%
    13:00 +4°C° 0 mm 8 m/s 736 mmHg 79%
    14:00 +3°C° 0,3 mm 9 m/s 736 mmHg 80%
    15:00 +2°C° 0,3 mm 9 m/s 736 mmHg 81%
    16:00 +2°C° 0,3 mm 10 m/s 735 mmHg 82%
    17:00 +2°C° 0,4 mm 9 m/s 735 mmHg 82%
    18:00 +2°C° 0,4 mm 9 m/s 734 mmHg 83%
    19:00 +2°C° 0,4 mm 9 m/s 733 mmHg 83%
    20:00 +2°C° 0,7 mm 9 m/s 733 mmHg 84%
    21:00 +2°C° 0,7 mm 9 m/s 732 mmHg 84%
    22:00 +2°C° 0,7 mm 9 m/s 731 mmHg 84%
    23:00 +2°C° 0,6 mm 9 m/s 730 mmHg 83%

    Demain, 18 Novembre, Samedi

    Heure Température Précipitation Vent Pression Humidité
    00:00 +1°C° 0,6 mm 9 m/s 730 mmHg 81%
    01:00 +1°C° 0,6 mm 8 m/s 729 mmHg 80%
    02:00 0°C° 0,2 mm 8 m/s 729 mmHg 79%
    03:00 0°C° 0,2 mm 7 m/s 728 mmHg 78%
    04:00 -1°C° 0,2 mm 7 m/s 728 mmHg 77%
    05:00 -1°C° 0 mm 7 m/s 728 mmHg 77%
    06:00 -1°C° 0 mm 7 m/s 727 mmHg 77%
    07:00 -2°C° 0 mm 6 m/s 727 mmHg 77%
    08:00 -2°C° 0 mm 7 m/s 727 mmHg 77%
    09:00 -1°C° 0 mm 7 m/s 727 mmHg 77%
    10:00 -1°C° 0 mm 7 m/s 727 mmHg 77%
    11:00 0°C° 0,1 mm 8 m/s 726 mmHg 76%
    12:00 +1°C° 0,1 mm 8 m/s 726 mmHg 75%
    13:00 +2°C° 0,1 mm 9 m/s 726 mmHg 73%
    14:00 +1°C° 0,1 mm 9 m/s 725 mmHg 74%
    15:00 +1°C° 0,1 mm 9 m/s 725 mmHg 75%
    16:00 +1°C° 0,1 mm 9 m/s 724 mmHg 76%
    17:00 +1°C° 0 mm 9 m/s 724 mmHg 75%
    18:00 +1°C° 0 mm 9 m/s 724 mmHg 75%
    19:00 +1°C° 0 mm 10 m/s 723 mmHg 74%
    20:00 +1°C° 0 mm 10 m/s 723 mmHg 74%
    21:00 +1°C° 0 mm 10 m/s 723 mmHg 74%
    22:00 +1°C° 0 mm 10 m/s 723 mmHg 74%
    23:00 +1°C° 0,1 mm 9 m/s 724 mmHg 74%

    Après-demain, 19 Novembre, Dimanche

    Heure Température Précipitation Vent Pression Humidité
    00:00 +1°C° 0,1 mm 9 m/s 724 mmHg 74%
    01:00 +1°C° 0,1 mm 8 m/s 725 mmHg 74%
    02:00 0°C° 0 mm 7 m/s 726 mmHg 75%
    03:00 -1°C° 0 mm 6 m/s 727 mmHg 75%
    04:00 -1°C° 0 mm 5 m/s 727 mmHg 75%
    05:00 -1°C° 0 mm 4 m/s 728 mmHg 76%
    06:00 -1°C° 0 mm 4 m/s 729 mmHg 77%
    07:00 -2°C° 0 mm 4 m/s 730 mmHg 78%
    08:00 -1°C° 0 mm 4 m/s 730 mmHg 77%
    09:00 -1°C° 0 mm 4 m/s 731 mmHg 77%
    10:00 0°C° 0 mm 3 m/s 732 mmHg 76%
    11:00 0°C° 0 mm 4 m/s 732 mmHg 73%
    12:00 +1°C° 0 mm 4 m/s 732 mmHg 71%
    13:00 +2°C° 0 mm 5 m/s 732 mmHg 69%
    14:00 +1°C° 0 mm 5 m/s 733 mmHg 69%
    15:00 -1°C° 0 mm 6 m/s 733 mmHg 70%
    16:00 -1°C° 0 mm 6 m/s 733 mmHg 71%
    17:00 -1°C° 0 mm 6 m/s 733 mmHg 71%
    18:00 -2°C° 0 mm 6 m/s 733 mmHg 71%
    19:00 -2°C° 0 mm 6 m/s 734 mmHg 71%
    20:00 -2°C° 0 mm 6 m/s 734 mmHg 71%
    21:00 -2°C° 0 mm 6 m/s 734 mmHg 72%
    22:00 -3°C° 0 mm 6 m/s 734 mmHg 73%
    23:00 -3°C° 0 mm 6 m/s 734 mmHg 74%

    20 Novembre, Lundi

    Heure Température Précipitation Vent Pression Humidité
    00:00 -2°C° 0 mm 5 m/s 734 mmHg 75%
    01:00 -2°C° 0 mm 5 m/s 734 mmHg 75%
    02:00 -4°C° 0 mm 5 m/s 734 mmHg 76%
    03:00 -3°C° 0 mm 4 m/s 734 mmHg 76%
    04:00 -3°C° 0 mm 4 m/s 734 mmHg 76%
    05:00 -3°C° 0 mm 4 m/s 734 mmHg 76%
    06:00 -2°C° 0 mm 3 m/s 733 mmHg 76%
    07:00 -4°C° 0 mm 3 m/s 733 mmHg 75%
    08:00 -2°C° 0 mm 3 m/s 733 mmHg 73%
    09:00 -2°C° 0 mm 3 m/s 733 mmHg 71%
    10:00 -2°C° 0 mm 2 m/s 733 mmHg 69%
    11:00 -1°C° 0 mm 3 m/s 733 mmHg 68%
    12:00 -1°C° 0 mm 3 m/s 733 mmHg 67%
    13:00 0°C° 0 mm 3 m/s 732 mmHg 66%
    14:00 -1°C° 0 mm 3 m/s 732 mmHg 68%
    15:00 -1°C° 0 mm 3 m/s 732 mmHg 71%
    16:00 -1°C° 0 mm 3 m/s 732 mmHg 73%
    17:00 -3°C° 0 mm 4 m/s 732 mmHg 74%
    18:00 -3°C° 0 mm 4 m/s 732 mmHg 74%
    19:00 -3°C° 0 mm 4 m/s 732 mmHg 75%
    20:00 -3°C° 0 mm 4 m/s 732 mmHg 76%
    21:00 -3°C° 0 mm 4 m/s 732 mmHg 76%
    22:00 -2°C° 0 mm 3 m/s 733 mmHg 77%
    23:00 -2°C° 0 mm 3 m/s 733 mmHg 78%

    21 Novembre, Mardi

    Heure Température Précipitation Vent Pression Humidité
    00:00 -2°C° 0 mm 3 m/s 733 mmHg 78%
    01:00 -2°C° 0 mm 2 m/s 733 mmHg 79%
    02:00 -2°C° 0 mm 2 m/s 733 mmHg 80%
    03:00 -2°C° 0 mm 2 m/s 733 mmHg 81%
    04:00 -2°C° 0 mm 2 m/s 733 mmHg 82%
    05:00 -1°C° 0 mm 1 m/s 733 mmHg 83%
    06:00 -1°C° 0 mm 1 m/s 733 mmHg 84%
    07:00 -1°C° 0 mm 1 m/s 733 mmHg 84%
    08:00 -1°C° 0,1 mm 1 m/s 733 mmHg 82%
    09:00 -1°C° 0,1 mm 1 m/s 733 mmHg 80%
    10:00 -1°C° 0,1 mm 1 m/s 733 mmHg 78%
    11:00 -2°C° 0,1 mm 2 m/s 733 mmHg 76%
    12:00 -2°C° 0,1 mm 2 m/s 733 mmHg 74%
    13:00 -1°C° 0,1 mm 2 m/s 733 mmHg 72%
    14:00 -2°C° 0,1 mm 2 m/s 733 mmHg 74%
    15:00 -4°C° 0,1 mm 3 m/s 733 mmHg 75%
    16:00 -4°C° 0,1 mm 3 m/s 733 mmHg 77%
    17:00 -4°C° 0,2 mm 3 m/s 733 mmHg 77%
    18:00 -4°C° 0,2 mm 4 m/s 733 mmHg 77%
    19:00 -5°C° 0,2 mm 4 m/s 733 mmHg 76%
    20:00 -6°C° 0,1 mm 5 m/s 733 mmHg 77%
    21:00 -6°C° 0,1 mm 5 m/s 732 mmHg 78%
    22:00 -6°C° 0,1 mm 5 m/s 732 mmHg 78%
    23:00 -6°C° 0,1 mm 5 m/s 732 mmHg 78%

    22 Novembre, Mercredi

    Heure Température Précipitation Vent Pression Humidité
    00:00 -6°C° 0,1 mm 5 m/s 733 mmHg 78%
    01:00 -6°C° 0,1 mm 5 m/s 733 mmHg 78%
    02:00 -6°C° 0,1 mm 6 m/s 732 mmHg 78%
    03:00 -6°C° 0,1 mm 6 m/s 732 mmHg 77%
    04:00 -6°C° 0,1 mm 6 m/s 732 mmHg 77%
    05:00 -6°C° 0 mm 6 m/s 732 mmHg 77%
    06:00 -6°C° 0 mm 6 m/s 732 mmHg 77%
    07:00 -6°C° 0 mm 6 m/s 732 mmHg 77%
    08:00 -7°C° 0 mm 7 m/s 733 mmHg 77%
    09:00 -7°C° 0 mm 7 m/s 733 mmHg 77%
    10:00 -7°C° 0 mm 7 m/s 733 mmHg 76%
    11:00 -7°C° 0,3 mm 7 m/s 733 mmHg 79%
    12:00 -7°C° 0,3 mm 7 m/s 732 mmHg 81%
    13:00 -6°C° 0,3 mm 7 m/s 732 mmHg 83%
    14:00 -6°C° 1,1 mm 7 m/s 732 mmHg 85%
    15:00 -6°C° 1,1 mm 7 m/s 731 mmHg 87%
    16:00 -6°C° 1,1 mm 7 m/s 731 mmHg 89%
    17:00 -5°C° 1,7 mm 8 m/s 730 mmHg 90%
    18:00 -5°C° 1,7 mm 9 m/s 730 mmHg 91%
    19:00 -4°C° 1,7 mm 10 m/s 729 mmHg 92%
    20:00 -4°C° 1,6 mm 10 m/s 729 mmHg 92%
    21:00 -3°C° 1,6 mm 10 m/s 729 mmHg 92%
    22:00 -3°C° 1,6 mm 10 m/s 728 mmHg 92%
    23:00 -3°C° 1,2 mm 9 m/s 728 mmHg 93%
    Voir plus